{"data":{"norad_id":59302,"epoch":"2026-09-21T06:09:48.423744Z","epoch_age_seconds":96861,"freshness":"FRESH","line1":"1 59302U 24056G   26264.25681046  .00000506  00000+0  27910-4 0  9991","line2":"2 59302  43.0005 206.2607 0001057 271.4274  88.6457 15.27577681141065","mean_motion":15.27577681,"eccentricity":0.0001057,"inclination_deg":43.0005,"raan_deg":206.2607,"arg_perigee_deg":271.4274,"mean_anomaly_deg":88.6457,"bstar":2.791e-5,"rev_number":14106,"period_min":94.266891819035,"perigee_km":482.33081186437,"apogee_km":483.78126807302,"semimajor_km":6861.1930399687,"source":"CELESTRAK","updated_at":"2026-09-22T09:00:48.876043Z"}}